VU3ZAG-13 Weather Reports


time (UTC)temp
C
wind
direction
speed
KPH
gust
KPH
rain 1hr
cm
rain 24hr
cm
rain mn
cm
humidity
%
barometer
mb
20260504070212 101 272 9.7 0.0 0.00 0.00 0.43 21
20260504050528 101 292 6.4 0.0 0.00 0.00 0.00 21
20260504050019 101 282 6.4 0.0 0.00 0.00 0.00 21
20260504045510 101 270 6.4 0.0 0.00 0.00 0.00 21
20260504045002 101 295 4.8 0.0 0.00 0.00 0.00 21
20260504044453 101 294 8.0 0.0 0.00 0.00 0.00 21
20260504043944 101 280 6.4 0.0 0.00 0.00 0.00 21
20260504043421 101 280 6.4 0.0 0.00 0.00 0.00 21
20260504042913 101 302 4.8 0.0 0.00 0.00 0.00 21
20260504042405 101 319 11.3 0.0 0.00 0.00 0.00 21
20260504041856 101 279 4.8 0.0 0.00 0.00 0.00 21
20260504041348 101 316 4.8 0.0 0.00 0.00 0.00 21
20260504040839 101 262 6.4 0.0 0.00 0.00 0.00 21
20260504040331 101 262 4.8 0.0 0.00 0.00 0.00 21
20260504035822 101 255 6.4 0.0 0.00 0.00 0.00 21
20260504035314 101 247 6.4 0.0 0.00 0.00 0.00 21
20260504034805 101 258 8.0 0.0 0.00 0.00 0.00 21
20260504034256 101 268 8.0 0.0 0.00 0.00 0.00 21
20260504033748 101 240 4.8 0.0 0.00 0.00 0.00 21
20260504033240 101 258 3.2 0.0 0.00 0.00 0.00 21
20260504032731 101 269 4.8 0.0 0.00 0.00 0.00 21
20260504032222 101 278 4.8 0.0 0.00 0.00 0.00 21
20260504031714 101 215 1.6 0.0 0.00 0.00 0.00 21
20260504031205 101 284 4.8 0.0 0.00 0.00 0.00 21
20260504030657 101 305 4.8 0.0 0.00 0.00 0.00 21
20260504030148 101 270 4.8 0.0 0.00 0.00 0.00 21
20260504025640 101 273 4.8 0.0 0.00 0.00 0.00 21
20260504025131 101 326 3.2 0.0 0.00 0.00 0.00 21
20260504024623 101 273 6.4 0.0 0.00 0.00 0.00 21
20260504024114 101 286 6.4 0.0 0.00 0.00 0.00 21
20260504023606 101 270 4.8 0.0 0.00 0.00 0.00 21
20260504023058 101 278 4.8 0.0 0.00 0.00 0.00 21
20260504022550 101 280 6.4 0.0 0.00 0.00 0.00 21
20260504022041 101 276 6.4 0.0 0.00 0.00 0.00 21
20260504021532 101 293 4.8 0.0 0.00 0.00 0.00 21
20260504021023 101 265 3.2 0.0 0.00 0.00 0.00 21
20260504020515 101 275 3.2 0.0 0.00 0.00 0.00 21
20260504020006 101 284 3.2 0.0 0.00 0.00 0.00 21
20260504015457 101 288 3.2 0.0 0.00 0.00 0.00 21
20260504014948 101 254 3.2 0.0 0.00 0.00 0.00 21
20260504014440 101 297 1.6 0.0 0.00 0.00 0.00 21
20260504013931 101 245 3.2 0.0 0.00 0.00 0.00 21
20260504013422 101 256 1.6 0.0 0.00 0.00 0.00 21
20260504012913 101 252 1.6 0.0 0.00 0.00 0.00 21
20260504012404 101 261 1.6 0.0 0.00 0.00 0.00 21
20260504011856 101 266 1.6 0.0 0.00 0.00 0.00 21
20260504011348 101 250 1.6 0.0 0.00 0.00 0.00 21
20260504010839 101 268 1.6 0.0 0.00 0.00 0.00 21
20260504010330 101 263 1.6 0.0 0.00 0.00 0.00 21
20260504005821 101 279 3.2 0.0 0.00 0.00 0.00 21
20260504005312 101 265 1.6 0.0 0.00 0.00 0.00 21
20260504004804 101 298 1.6 0.0 0.00 0.00 0.00 21
20260504004255 101 286 3.2 0.0 0.00 0.00 0.00 21
20260504003746 101 274 3.2 0.0 0.00 0.00 0.00 21
20260504003238 101 300 1.6 0.0 0.00 0.00 0.00 21
20260504002729 101 291 3.2 0.0 0.00 0.00 0.00 21
20260504002221 101 259 3.2 0.0 0.00 0.00 0.00 21
20260504001712 101 279 3.2 0.0 0.00 0.00 0.00 21
20260504001203 101 272 4.8 0.0 0.00 0.00 0.00 21
20260504000655 101 278 3.2 0.0 0.00 0.00 0.00 21
20260504000147 101 245 3.2 0.0 0.00 0.00 0.00 21
20260503235638 101 266 4.8 0.0 0.00 0.00 0.00 21
20260503235130 101 264 6.4 0.0 0.00 0.00 0.00 21
20260503234621 101 277 4.8 0.0 0.00 0.00 0.00 21
20260503234113 101 224 3.2 0.0 0.00 0.00 0.00 21
20260503233604 101 269 4.8 0.0 0.00 0.00 0.00 21
20260503233055 101 260 4.8 0.0 0.00 0.00 0.00 21
20260503232546 101 264 4.8 0.0 0.00 0.00 0.00 21
20260503232038 101 262 6.4 0.0 0.00 0.00 0.00 21
20260503231530 101 278 6.4 0.0 0.00 0.00 0.00 21
20260503231021 101 272 3.2 0.0 0.00 0.00 0.00 21
20260503230513 101 277 3.2 0.0 0.00 0.00 0.00 21
20260503230004 101 284 4.8 0.0 0.00 0.00 0.00 21
20260503225456 101 276 3.2 0.0 0.00 0.00 0.00 21
20260503224947 101 266 1.6 0.0 0.00 0.00 0.00 21
20260503224439 101 250 1.6 0.0 0.00 0.00 0.00 21
20260503223930 101 278 4.8 0.0 0.00 0.00 0.00 21
20260503223422 101 287 3.2 0.0 0.00 0.00 0.00 21
20260503222913 101 276 6.4 0.0 0.00 0.00 0.00 21
20260503222405 101 275 4.8 0.0 0.00 0.00 0.00 21
20260503221856 101 279 4.8 0.0 0.00 0.00 0.00 21
20260503221348 101 279 6.4 0.0 0.00 0.00 0.00 21
20260503220839 101 270 6.4 0.0 0.00 0.00 0.00 21
20260503220330 101 266 4.8 0.0 0.00 0.00 0.00 21
20260503215822 101 264 6.4 0.0 0.00 0.00 0.00 21
20260503215314 101 265 4.8 0.0 0.00 0.00 0.00 21
20260503214806 101 285 4.8 0.0 0.00 0.00 0.00 21
20260503214257 101 278 3.2 0.0 0.00 0.00 0.00 21
20260503213749 101 269 4.8 0.0 0.00 0.00 0.00 21
20260503213240 101 279 4.8 0.0 0.00 0.00 0.00 21
20260503212732 101 286 3.2 0.0 0.00 0.00 0.00 21
20260503212224 101 273 3.2 0.0 0.00 0.00 0.00 21
20260503211715 101 270 4.8 0.0 0.00 0.00 0.00 21
20260503211206 101 273 4.8 0.0 0.00 0.00 0.00 21
20260503210658 101 275 4.8 0.0 0.00 0.00 0.00 21
20260503210149 101 287 4.8 0.0 0.00 0.00 0.00 21
20260503205640 101 336 4.8 0.0 0.00 0.00 0.00 21
20260503205132 101 277 4.8 0.0 0.00 0.00 0.00 21
20260503204623 101 267 4.8 0.0 0.00 0.00 0.00 21
20260503204114 101 274 4.8 0.0 0.00 0.00 0.00 21
20260503203606 101 272 6.4 0.0 0.00 0.00 0.00 21
20260503203058 101 269 4.8 0.0 0.00 0.00 0.00 21
20260503202550 101 299 6.4 0.0 0.00 0.00 0.00 21
20260503202041 101 295 3.2 0.0 0.00 0.00 0.00 21
20260503201533 101 277 4.8 0.0 0.00 0.00 0.00 21
20260503201025 101 277 4.8 0.0 0.00 0.00 0.00 21
20260503200517 101 269 4.8 0.0 0.00 0.00 0.00 21
20260503200008 101 273 3.2 0.0 0.00 0.00 0.00 21
20260503195500 101 279 4.8 0.0 0.00 0.00 0.00 21
20260503194952 101 274 4.8 0.0 0.00 0.00 0.00 21
20260503194443 101 284 4.8 0.0 0.00 0.00 0.00 21
20260503193935 101 298 4.8 0.0 0.00 0.00 0.00 21
20260503193426 101 310 3.2 0.0 0.00 0.00 0.00 21
20260503192918 101 284 4.8 0.0 0.00 0.00 0.00 21
20260503192409 101 285 4.8 0.0 0.00 0.00 0.00 21
20260503191901 101 273 4.8 0.0 0.00 0.00 0.00 21
20260503191353 101 336 3.2 0.0 0.00 0.00 0.00 21
20260503190845 101 287 4.8 0.0 0.00 0.00 0.00 21
20260503190336 101 279 4.8 0.0 0.00 0.00 0.00 21
20260503185828 101 274 4.8 0.0 0.00 0.00 0.00 21
20260503185320 101 282 4.8 0.0 0.00 0.00 0.00 21
20260503184811 101 279 4.8 0.0 0.00 0.00 0.00 21
20260503184302 101 334 3.2 0.0 0.00 0.00 0.00 21
20260503183754 101 311 3.2 0.0 0.00 0.00 0.00 21
20260503183246 101 297 3.2 0.0 0.00 0.00 0.00 21
20260503182738 101 273 1.6 0.0 0.00 0.00 0.00 21
20260503182229 101 294 3.2 0.0 0.00 0.00 0.00 21
20260503181721 101 288 1.6 0.0 0.00 0.00 0.00 21
20260503181212 101 282 3.2 0.0 0.00 0.00 0.00 21
20260503180156 101 277 3.2 0.0 0.00 0.00 0.00 21
20260503175648 101 285 3.2 0.0 0.00 0.00 0.00 21
20260503174631 101 251 1.6 0.0 0.00 0.00 0.00 21
20260503174119 101 251 1.6 0.0 0.00 0.00 0.00 21
20260503173610 101 257 1.6 0.0 0.00 0.00 0.00 21
20260503173101 101 249 1.6 0.0 0.00 0.00 0.00 21
20260503172553 101 271 3.2 0.0 0.00 0.00 0.00 21
20260503172039 101 271 3.2 0.0 0.00 0.00 0.00 21
20260503171531 101 275 1.6 0.0 0.00 0.00 0.00 21
20260503171022 101 289 3.2 0.0 0.00 0.00 0.00 21
20260503170510 101 289 3.2 0.0 0.00 0.00 0.00 21
20260503150626 32 291 4.8 0.0 0.00 0.00 0.00 29
20260503150117 32 291 6.4 0.0 0.00 0.00 0.00 29